{"data":{"norad_id":52685,"intl_designator":"2022-053AF","name":"STARLINK-4029","alt_names":[],"object_type":"PAYLOAD","status":"ACTIVE","operator":null,"country":"US","launch_date":"2022-05-18","launch_site_code":"AFETR","launch_vehicle":null,"mission":null,"orbit_class":"UNKNOWN","rcs_meters":null,"size_class":null,"mass_kg":null,"dimensions":null,"purposes":["comms"],"wikipedia_slug":null,"has_3d_model":false,"image_url":null,"decayed_at":null,"tle_current":{"epoch":"2026-09-19T23:29:29.214240Z","epoch_age_seconds":111485,"freshness":"FRESH","line1":"1 52685U 22053AF  26262.97881035  .00045355  00000+0  17447-2 0  9993","line2":"2 52685  53.1616 349.5293 0001192  83.7113 276.4022 15.25976725240470","mean_motion":15.25976725,"eccentricity":0.0001192,"inclination_deg":53.1616,"raan_deg":349.5293,"arg_perigee_deg":83.7113,"mean_anomaly_deg":276.4022,"bstar":0.0017447,"rev_number":24047,"period_min":94.365790539826,"perigee_km":487.03565484203,"apogee_km":488.67250711573,"semimajor_km":6865.9910809789,"source":"CELESTRAK","updated_at":"2026-09-20T09:00:40.105870Z"}}}